Temperature
25 25 24 24 22 20 21 23 23 23 22 22 22 21 20 19 19 19 19 19 19 19 19 19 19 19 19 19 19 19 19 18 18 18 18 18 18 18 18 18 18 18 18 18 18 18 18 18 18
26 25 25 24 21 20 21 22 23 22 22 22 22 21 19 18 18 19 19 19 19 19 19 19 19 19 19 19 19 19 18 18 18 18 18 18 18 18 18 18 18 18 18 18 18 18 18 18 18
26 26 25 21 21 21 22 23 22 23 23 23 21 20 19 18 19 19 19 19 19 19 19 19 19 19 19 19 19 19 18 18 18 18 18 18 18 18 18 18 18 18 18 18 18 18 18 18 18
26 26 25 21 22 23 23 23 23 23 23 22 21 20 19 19 20 20 19 19 19 19 19 19 19 19 19 19 19 19 18 18 18 18 18 18 18 18 18 18 18 18 18 18 17 17 17 17 17
27 26 21 21 23 23 23 24 23 23 22 21 20 19 19 19 20 20 20 19 19 19 19 19 19 19 19 19 19 19 18 18 18 18 18 18 18 18 18 18 18 18 18 17 17 17 17 17 17
27 22 21 21 23 24 24 24 23 22 21 21 20 19 18 19 20 20 20 19 19 19 19 19 19 19 19 19 19 19 18 18 18 18 18 18 18 18 18 18 18 18 18 17 17 17 17 17 17
25 21 22 23 23 23 24 24 23 22 22 21 20 18 18 19 20 20 20 19 19 19 19 19 19 19 19 19 19 18 18 18 18 18 18 18 18 18 18 18 18 18 18 17 17 17 17 17 17
27 21 23 22 23 24 24 24 23 23 22 22 21 19 18 19 19 19 19 19 19 19 19 19 19 19 19 19 18 18 18 18 18 18 18 18 18 18 18 18 18 18 18 17 17 17 17 17 17
27 21 22 23 23 24 24 24 23 23 22 22 22 21 21 20 19 19 19 19 19 19 19 19 19 19 19 19 18 18 18 18 18 18 18 18 18 18 18 18 18 18 17 17 17 17 17 17 17
26 22 24 24 24 24 24 24 23 23 22 21 21 21 20 20 20 20 19 20 20 20 19 19 19 19 19 19 19 18 18 18 18 18 18 18 18 18 18 18 18 17 17 17 17 17 17 17 17
25 24 25 25 26 25 24 24 24 23 21 21 21 21 20 20 20 20 20 20 20 20 20 19 19 19 19 19 19 18 18 18 18 18 18 18 18 18 18 18 18 17 17 17 17 17 17 17 17
25 25 26 26 26 25 24 24 23 23 23 23 23 22 21 20 20 20 20 20 20 20 20 20 19 19 19 19 19 18 18 18 18 18 18 18 18 18 18 18 18 18 18 17 17 17 17 17 17
26 26 26 26 26 25 25 24 23 23 23 23 22 22 21 21 21 21 20 20 20 20 20 20 19 19 19 19 19 18 18 18 18 18 18 18 18 18 18 18 18 18 18 18 17 17 17 17 17
26 25 25 26 26 25 24 23 23 22 23 22 22 21 21 21 21 20 20 20 20 20 20 20 20 19 19 19 19 18 18 18 18 18 18 18 18 18 18 18 18 18 18 18 18 18 18 18 17
26 25 24 25 25 25 24 23 22 22 22 22 21 21 21 21 21 21 21 21 21 20 20 20 20 19 19 19 19 18 18 18 18 18 18 18 18 18 18 18 18 18 18 18 18 18 18 18 17
25 24 24 25 24 24 24 23 22 23 22 21 21 21 21 21 21 22 21 21 21 21 20 20 20 19 19 19 19 18 18 18 18 18 18 18 18 18 18 18 18 18 17 18 18 17 17 17 17
23 23 24 24 24 24 23 23 22 22 22 21 21 21 21 21 21 22 22 21 21 21 20 20 20 20 19 19 18 18 18 18 18 18 18 18 17 18 18 18 18 17 17 17 17 17 17 17 17
24 24 24 24 24 24 23 22 22 22 22 22 22 22 22 22 22 22 22 22 21 21 20 20 20 19 19 19 18 18 18 18 18 18 18 18 18 17 18 18 17 17 17 17 17 17 17 17 17
25 24 24 24 24 24 23 22 22 22 22 21 22 22 22 22 22 22 22 22 21 21 20 20 20 19 19 19 19 19 18 18 18 18 18 18 18 18 18 18 18 17 17 17 17 17 17 17 17
24 24 24 25 24 24 23 22 22 21 21 22 22 22 22 22 22 22 22 22 21 21 21 20 20 19 19 19 19 19 18 18 18 18 18 18 18 18 18 18 18 18 17 17 17 17 17 17 17
25 25 25 25 24 23 23 23 22 22 22 22 22 22 22 22 22 22 22 22 21 21 21 20 20 20 19 19 19 19 18 18 18 18 18 18 18 18 17 17 18 18 17 17 17 17 17 17 17
25 25 25 25 23 22 23 22 22 21 21 21 22 22 22 22 22 22 22 22 22 21 21 20 20 20 19 19 19 19 19 18 18 18 18 18 18 17 17 17 18 18 18 17 17 17 17 17 17
25 24 24 23 22 21 22 22 21 21 21 21 21 22 22 22 22 22 22 22 22 21 21 20 20 20 20 19 19 19 18 18 18 18 18 18 18 17 17 17 17 17 17 17 17 17 17 17 17
24 22 21 19 19 21 22 22 22 20 21 21 21 22 22 22 22 22 22 22 22 21 21 20 20 20 20 19 19 19 19 18 18 18 18 18 18 18 17 17 17 17 17 17 17 17 17 17 17
23 21 21 22 20 21 21 21 21 21 21 21 22 22 22 23 23 22 22 22 22 21 21 20 20 20 19 19 19 19 18 18 18 18 18 18 18 18 17 17 17 17 17 17 17 17 17 17 17
23 22 21 22 21 20 20 21 21 22 22 22 23 23 23 22 23 22 22 22 22 21 21 20 20 20 19 19 19 19 18 18 18 18 18 18 18 18 17 17 17 17 17 17 17 17 17 16 16
22 21 20 19 20 20 20 21 21 22 21 21 22 22 22 22 22 22 22 22 22 21 21 20 20 20 19 19 19 19 18 18 18 18 17 17 17 17 17 17 17 17 17 17 17 17 16 16 16
22 18 18 19 20 21 22 22 21 22 22 21 20 21 21 22 22 22 22 22 22 21 21 20 20 19 19 19 19 19 18 18 18 17 17 17 17 17 17 17 17 17 17 16 16 16 16 16 16
22 20 17 16 18 19 21 22 22 21 21 20 20 21 22 22 22 22 22 22 22 21 21 20 20 19 19 19 18 18 18 18 17 17 17 17 17 17 17 17 16 16 16 16 16 16 16 16 15
23 20 18 20 19 18 19 21 22 21 20 21 21 21 21 22 22 22 22 22 21 21 21 20 20 19 19 18 18 18 18 18 17 17 17 17 17 17 16 16 16 16 16 16 16 16 15 15 15
Wind_Speed
2 3 3 2 6 7 5 4 2 4 3 4 7 7 8 5 2 5 3 7 8 7 8 11 12 13 13 14 14 15 15 15 15 15 16 16 16 16 16 16 16 16 16 17 17 17 16 16 16
2 3 2 4 6 5 4 4 4 4 5 6 7 7 7 6 5 7 5 6 9 8 8 10 12 12 13 13 14 14 14 14 14 15 15 15 15 15 15 15 15 15 15 16 16 16 16 15 15
3 2 4 5 5 4 2 1 6 6 5 4 5 6 5 4 6 5 5 9 8 7 8 10 12 12 12 12 13 13 13 13 13 14 14 14 14 14 14 14 14 15 15 15 15 15 15 14 13
3 4 5 6 5 1 3 4 6 6 6 7 6 6 5 4 5 6 10 10 9 6 8 10 12 12 12 12 12 12 12 12 12 12 12 13 13 13 13 13 13 14 14 14 14 14 14 13 12
4 5 7 5 4 3 3 4 3 5 4 6 6 6 4 4 9 12 11 10 8 6 7 10 11 11 11 11 11 11 11 11 11 11 11 11 12 12 12 12 12 12 13 13 13 13 13 12 12
5 5 6 3 3 3 3 3 4 7 6 6 6 5 4 4 9 10 9 8 6 6 6 9 11 11 10 10 10 10 10 10 10 10 10 10 11 11 11 11 11 11 11 11 11 11 11 11 11
5 5 4 4 3 2 2 3 4 6 6 4 4 5 3 4 6 8 8 7 6 6 6 6 7 9 9 9 9 9 9 9 9 9 9 9 9 9 9 9 9 9 10 10 10 10 9 9 9
5 5 4 3 5 3 4 3 4 6 5 6 5 7 6 6 9 9 8 6 5 4 4 4 5 6 6 7 8 8 8 8 8 8 8 7 7 7 7 7 7 8 8 8 8 8 8 7 8
4 5 2 5 6 5 6 5 4 5 7 4 4 5 8 14 13 10 7 5 4 4 3 3 3 4 5 5 6 7 7 7 6 6 6 6 5 5 5 5 6 6 6 6 6 7 6 7 7
5 4 5 5 6 7 7 6 6 6 5 3 7 9 14 15 13 11 10 9 8 7 5 3 3 3 3 3 5 4 4 4 4 4 5 5 4 3 3 3 4 4 5 5 5 6 6 5 5
4 4 3 2 5 8 7 5 4 8 4 6 12 16 17 15 12 10 10 8 8 6 6 5 4 3 3 2 4 3 3 3 3 3 4 4 3 2 2 2 2 3 3 3 3 4 4 3 3
3 0 2 3 6 7 7 6 5 4 5 8 15 19 17 16 13 12 11 9 7 6 6 6 5 4 4 2 2 3 2 2 2 2 4 3 2 1 1 1 1 2 2 2 2 2 1 1 2
3 1 2 4 7 7 7 5 5 2 6 12 15 16 15 14 11 9 7 7 7 7 7 7 6 5 4 3 3 3 3 3 3 3 4 4 3 2 1 0 0 0 0 0 0 1 1 1 2
1 2 4 5 6 4 7 4 4 4 10 13 14 13 13 13 11 9 8 8 8 8 8 6 7 6 5 4 3 3 4 4 4 4 5 6 5 4 2 1 1 2 2 1 1 0 1 0 1
3 6 7 4 3 4 8 3 2 7 11 12 12 11 11 10 10 11 11 10 9 8 7 7 7 6 5 5 5 4 5 5 5 5 6 7 7 6 4 3 2 3 3 2 0 0 1 0 0
5 6 3 2 2 4 7 4 4 9 12 11 11 10 10 9 10 10 10 8 8 7 7 7 8 7 6 5 4 4 5 5 5 6 6 7 8 8 6 4 3 4 3 2 1 1 0 0 1
6 3 0 2 1 3 4 4 5 8 11 10 10 10 9 8 8 8 8 9 9 9 8 8 7 7 7 5 4 3 4 4 5 5 6 6 7 7 7 5 4 4 3 2 2 2 2 2 2
1 1 1 3 3 4 4 4 5 9 10 9 9 8 8 9 9 8 8 8 8 8 8 8 6 6 5 3 2 1 1 2 3 4 5 6 6 7 7 5 4 4 2 2 2 2 2 2 2
4 3 3 4 2 4 5 4 6 8 8 9 9 8 8 7 5 5 6 7 7 7 7 7 6 5 5 3 3 2 2 2 2 3 5 6 7 6 6 4 4 4 4 4 3 2 2 1 1
4 2 1 2 2 4 2 2 3 6 9 9 10 9 9 6 5 5 6 6 7 7 7 6 6 6 5 4 3 2 2 2 2 2 3 6 6 6 6 5 4 4 4 3 3 3 2 2 2
2 4 3 2 3 5 4 3 2 4 5 5 6 7 8 9 9 7 7 7 7 7 7 7 6 6 5 5 3 2 2 1 0 1 1 2 5 5 5 5 4 4 4 4 5 5 5 3 2
2 3 4 4 5 1 2 2 6 4 5 7 8 8 8 8 8 8 8 8 8 7 6 5 5 5 4 4 4 4 3 3 2 2 1 1 3 4 5 5 5 4 4 4 5 5 4 4 3
3 3 5 4 5 3 3 2 7 2 6 10 10 9 8 8 8 9 9 9 8 7 6 5 5 4 4 4 5 4 3 2 1 0 0 1 1 2 3 3 3 3 4 4 4 4 4 4 4
6 8 8 7 6 2 2 2 7 5 8 6 8 9 9 9 8 7 7 6 6 5 5 5 5 4 4 5 5 5 4 2 1 1 1 1 1 1 1 2 2 3 3 4 4 4 4 4 4
6 7 5 5 4 4 3 2 9 8 7 8 8 9 9 9 9 8 8 8 8 7 6 5 5 4 4 4 4 4 4 3 3 2 1 1 1 1 1 0 1 1 2 2 2 2 3 3 4
5 9 8 5 5 4 2 5 8 6 4 4 5 6 8 8 8 9 8 8 8 8 7 6 5 4 4 4 3 3 3 2 2 1 1 1 1 1 0 0 0 1 1 1 1 1 1 1 3
7 4 7 8 4 1 5 7 8 3 2 1 4 6 8 8 8 8 8 7 7 7 6 6 5 4 4 4 3 3 3 2 2 1 1 0 0 0 1 1 1 1 1 1 2 1 0 0 1
6 10 7 7 6 2 5 5 5 6 4 3 5 7 7 7 7 8 8 8 7 6 6 5 6 4 3 3 3 2 2 2 2 2 1 1 1 2 2 3 3 3 3 3 2 2 1 1 1
6 6 6 6 6 7 3 7 7 8 7 8 8 7 8 9 9 8 7 7 7 6 6 6 5 5 4 3 3 3 3 3 3 3 2 2 2 3 3 4 4 4 3 3 3 2 2 2 2
6 9 9 7 4 5 5 8 6 6 6 6 6 6 6 7 7 7 7 7 7 7 7 6 6 5 4 4 4 4 4 4 4 4 3 3 4 4 4 4 5 4 4 4 3 3 3 3 3
Wind_Direction
221 168 142 92 56 50 33 7 85 92 66 67 82 85 90 69 96 134 124 133 129 125 127 124 119 112 107 105 104 104 104 104 103 103 103 103 101 100 99 98 97 98 99 101 102 103 102 103 103
169 150 95 61 74 62 3 359 69 78 129 118 83 73 72 65 67 105 124 135 123 123 124 128 122 116 112 109 106 107 107 106 105 105 104 104 102 101 101 100 99 100 100 101 103 104 104 103 104
165 125 82 68 79 123 128 67 103 103 105 88 81 66 73 97 117 129 144 132 115 117 126 133 125 120 116 113 110 109 109 109 108 107 107 106 105 103 102 101 101 102 102 102 103 104 104 103 105
107 55 55 66 65 57 153 147 124 106 64 56 87 72 66 92 128 131 131 128 119 116 128 134 127 124 120 117 114 111 110 111 110 109 108 108 108 105 103 102 102 103 103 103 103 104 105 105 107
64 72 58 51 35 37 94 129 103 87 73 68 80 81 53 38 106 121 127 127 126 122 128 135 132 129 126 122 119 116 112 112 112 112 111 110 108 105 104 104 104 104 105 105 105 105 105 107 109
56 65 75 73 49 54 90 92 85 82 87 85 78 82 52 96 117 127 122 118 121 122 121 133 136 133 131 128 125 120 117 116 115 114 113 112 110 107 106 106 107 106 107 107 107 108 106 107 108
93 84 108 124 106 109 149 88 98 112 104 99 102 93 93 125 121 117 110 107 108 112 111 116 131 135 136 134 130 126 123 121 120 119 117 114 112 109 107 107 108 109 110 110 109 108 105 106 111
111 95 88 126 139 166 145 98 107 116 103 114 113 130 160 164 128 112 104 100 104 103 100 106 114 120 123 132 135 132 129 127 127 128 127 122 114 109 107 106 109 110 110 110 111 110 104 103 113
85 76 139 184 168 168 146 128 127 91 114 120 106 130 146 138 130 124 121 124 139 147 117 111 114 116 120 132 141 136 132 131 126 122 122 106 89 92 99 111 112 111 109 109 112 110 102 98 107
81 116 204 196 172 153 146 138 140 117 115 93 87 100 126 140 146 151 159 167 175 178 176 160 149 142 140 143 124 115 110 113 107 102 106 102 97 93 99 109 110 108 104 106 106 102 93 89 94
103 165 198 152 142 133 133 131 125 129 163 177 149 144 147 155 160 168 175 178 184 181 184 178 172 168 164 125 124 116 107 112 116 120 127 117 95 71 67 59 62 68 74 70 77 81 84 91 108
101 286 152 140 125 126 138 133 122 158 200 162 150 150 155 165 174 181 182 184 179 179 191 184 177 178 184 169 151 150 143 146 156 165 162 143 118 89 59 40 47 54 57 58 55 62 74 90 138
73 6 34 108 109 113 110 111 116 102 114 127 138 150 164 174 182 185 184 181 179 189 195 191 185 188 187 181 184 173 179 187 198 196 193 176 171 180 188 246 292 274 14 79 26 26 48 68 122
119 73 61 77 98 106 113 95 96 139 131 136 149 161 173 181 180 175 177 186 190 195 197 195 194 192 185 187 193 188 192 197 205 214 210 199 193 193 192 211 239 259 256 255 256 293 39 44 134
74 65 48 48 81 116 108 70 168 157 144 151 163 171 179 187 183 188 190 190 192 193 192 192 196 188 188 195 199 198 199 197 202 216 218 210 206 204 199 205 228 242 239 228 203 345 36 75 160
53 60 49 306 123 130 124 195 205 157 157 165 174 181 187 194 196 198 191 188 186 184 186 194 198 185 191 197 199 197 198 199 207 215 217 220 218 210 196 202 226 231 219 197 177 173 139 241 204
36 71 308 291 189 135 142 200 202 167 168 176 183 188 188 193 201 200 188 186 184 184 182 188 190 182 188 188 185 191 194 199 205 211 219 224 218 209 200 205 217 212 204 206 210 182 181 209 222
204 154 227 242 223 139 159 206 187 177 180 186 190 191 191 198 204 190 183 181 177 177 178 184 183 179 169 157 151 164 196 211 203 211 219 226 221 212 201 204 207 196 194 212 207 200 189 204 213
158 157 230 251 207 149 182 202 196 183 189 193 200 199 201 209 195 170 171 168 164 169 175 181 177 177 163 157 170 182 207 213 212 216 220 225 226 218 206 206 197 191 198 211 206 199 201 215 179
138 138 261 338 56 122 148 252 217 191 205 203 200 202 203 195 170 168 163 162 170 176 180 179 183 182 183 180 175 176 178 205 214 223 224 224 223 218 216 210 204 198 194 206 206 192 192 220 182
152 172 194 164 62 56 91 346 261 234 215 210 203 199 196 193 184 180 174 176 174 180 184 186 185 185 188 175 144 114 90 56 73 245 241 233 227 221 217 213 210 200 195 207 212 201 197 210 207
236 219 173 138 105 9 99 249 277 244 237 223 211 199 197 194 186 183 180 179 182 187 181 180 177 178 178 168 163 166 179 202 216 212 222 251 232 225 224 221 219 210 205 212 220 208 205 198 214
188 84 101 101 109 65 34 140 285 278 244 237 218 201 197 191 188 186 184 183 180 173 169 174 170 174 171 171 174 173 191 210 210 167 233 260 265 239 235 229 223 217 213 219 223 209 207 208 211
124 74 58 51 70 59 277 172 277 240 229 237 211 198 191 183 182 181 174 160 159 156 159 164 168 178 175 175 174 179 193 194 181 213 246 267 275 279 263 227 219 218 217 221 225 216 209 214 220
94 91 44 18 19 253 280 212 252 259 247 221 199 191 185 175 172 170 167 165 165 164 167 166 168 181 177 173 179 186 190 183 196 211 220 230 244 263 275 224 219 233 233 230 222 214 219 216 223
154 135 152 177 204 267 320 242 260 276 281 218 186 172 163 168 170 171 174 172 170 166 163 161 167 177 172 172 178 179 177 174 188 194 201 229 244 260 322 102 176 278 274 260 206 208 228 228 234
132 145 151 128 137 85 287 289 303 306 339 118 153 157 166 167 167 169 165 163 162 158 162 167 164 171 168 165 155 145 156 162 166 163 151 295 311 27 54 80 79 45 52 73 98 96 89 171 226
133 139 106 116 138 211 293 283 256 261 237 204 181 180 171 156 158 164 161 157 157 155 155 151 151 161 146 139 145 139 131 136 127 108 96 77 49 53 60 61 70 65 60 63 80 68 53 67 13
114 96 102 106 140 149 215 267 232 224 213 201 200 182 165 161 161 161 152 147 147 144 140 138 135 132 129 128 117 109 107 105 100 94 83 72 60 59 64 69 68 61 52 53 67 60 48 50 28
154 160 146 145 178 163 169 261 275 227 205 186 180 168 159 156 149 144 140 142 143 143 139 137 134 136 138 128 114 106 100 96 92 86 76 75 71 66 70 73 72 64 54 54 65 64 58 58 43
Height
1490 1489 1490 1492 1496 1510 1517 1511 1506 1508 1510 1511 1511 1512 1516 1520 1523 1530 1528 1528 1531 1533 1534 1536 1537 1537 1538 1538 1539 1540 1540 1540 1541 1541 1542 1542 1543 1543 1544 1544 1545 1545 1546 1546 1547 1548 1549 1550 1551
1490 1490 1492 1493 1508 1526 1522 1511 1509 1509 1511 1511 1513 1515 1517 1521 1522 1525 1527 1530 1533 1534 1536 1537 1539 1539 1540 1541 1541 1542 1543 1543 1544 1544 1545 1545 1546 1546 1547 1547 1547 1548 1548 1549 1550 1550 1551 1552 1554
1491 1492 1494 1499 1515 1524 1520 1512 1510 1511 1512 1512 1515 1518 1521 1523 1525 1527 1529 1532 1534 1536 1538 1540 1541 1542 1542 1543 1544 1544 1545 1546 1546 1547 1547 1548 1548 1549 1549 1550 1550 1551 1551 1552 1553 1553 1554 1555 1556
1492 1494 1497 1508 1517 1514 1512 1512 1511 1512 1514 1515 1517 1521 1524 1527 1528 1529 1531 1534 1536 1538 1540 1542 1543 1544 1545 1545 1546 1547 1547 1548 1549 1549 1550 1551 1551 1552 1552 1552 1553 1553 1554 1555 1556 1556 1557 1558 1559
1494 1496 1507 1518 1517 1513 1511 1512 1513 1513 1515 1518 1519 1523 1527 1529 1530 1532 1533 1536 1538 1540 1542 1544 1545 1546 1547 1547 1548 1549 1550 1550 1551 1552 1552 1553 1554 1554 1555 1555 1555 1556 1557 1558 1558 1559 1560 1561 1562
1496 1499 1520 1526 1519 1514 1513 1514 1515 1516 1519 1521 1522 1525 1530 1531 1533 1534 1536 1539 1541 1542 1544 1545 1547 1548 1549 1549 1550 1551 1552 1553 1553 1554 1555 1555 1556 1556 1557 1557 1558 1559 1559 1560 1561 1562 1563 1564 1564
1498 1507 1520 1521 1520 1518 1515 1515 1517 1518 1520 1523 1524 1527 1531 1533 1535 1537 1539 1541 1543 1545 1546 1547 1549 1550 1551 1552 1552 1553 1554 1555 1556 1556 1557 1557 1558 1559 1559 1560 1560 1561 1562 1563 1564 1565 1565 1566 1567
1499 1507 1518 1520 1520 1519 1515 1517 1518 1519 1522 1524 1526 1527 1531 1534 1536 1538 1540 1542 1544 1546 1548 1549 1550 1551 1552 1553 1554 1555 1556 1557 1558 1558 1559 1559 1560 1561 1561 1562 1563 1563 1564 1565 1566 1567 1568 1568 1569
1500 1513 1522 1518 1518 1516 1515 1517 1520 1521 1523 1525 1526 1528 1530 1534 1537 1539 1542 1544 1545 1547 1549 1550 1552 1553 1554 1555 1556 1557 1558 1559 1559 1560 1561 1561 1562 1563 1563 1564 1565 1566 1566 1567 1568 1569 1570 1570 1571
1502 1516 1514 1509 1509 1511 1514 1517 1519 1522 1524 1526 1527 1529 1532 1535 1537 1540 1542 1544 1546 1548 1550 1552 1553 1554 1556 1557 1558 1559 1560 1560 1561 1562 1563 1563 1564 1565 1565 1566 1567 1568 1568 1569 1570 1571 1572 1572 1573
1503 1509 1506 1506 1507 1510 1514 1517 1520 1522 1525 1525 1525 1529 1532 1535 1538 1541 1543 1545 1547 1549 1551 1552 1554 1556 1557 1558 1559 1560 1561 1562 1563 1563 1564 1565 1566 1566 1567 1568 1568 1569 1570 1571 1572 1573 1573 1574 1575
1504 1504 1504 1506 1508 1511 1514 1517 1520 1522 1522 1524 1526 1529 1532 1535 1538 1541 1543 1546 1548 1550 1552 1554 1555 1557 1558 1559 1560 1561 1562 1563 1564 1565 1566 1566 1567 1568 1568 1569 1570 1571 1572 1572 1573 1574 1575 1575 1576
1505 1505 1506 1507 1509 1513 1516 1518 1520 1523 1523 1525 1528 1531 1533 1536 1539 1542 1545 1547 1549 1551 1553 1554 1556 1557 1558 1560 1561 1562 1563 1564 1565 1566 1567 1567 1568 1569 1569 1570 1571 1572 1573 1573 1574 1575 1576 1576 1577
1506 1506 1508 1510 1511 1514 1518 1521 1522 1524 1525 1527 1530 1532 1535 1537 1540 1542 1545 1547 1549 1551 1553 1555 1556 1557 1559 1560 1562 1563 1564 1565 1566 1566 1567 1568 1569 1569 1570 1571 1572 1573 1573 1574 1575 1575 1576 1577 1577
1506 1509 1512 1513 1514 1516 1519 1525 1524 1524 1526 1529 1531 1533 1535 1538 1540 1542 1544 1546 1549 1551 1553 1555 1556 1558 1559 1560 1562 1563 1564 1565 1566 1566 1567 1568 1569 1569 1570 1571 1572 1573 1574 1574 1575 1576 1576 1576 1577
1509 1517 1524 1517 1515 1517 1523 1532 1524 1525 1526 1529 1531 1533 1536 1538 1540 1542 1544 1547 1549 1551 1553 1555 1556 1557 1559 1560 1561 1562 1564 1565 1565 1566 1567 1568 1568 1569 1570 1570 1571 1572 1573 1574 1574 1575 1575 1576 1576
1522 1530 1529 1522 1516 1517 1522 1528 1523 1524 1526 1528 1530 1533 1535 1537 1539 1542 1544 1546 1549 1551 1553 1554 1555 1557 1558 1560 1561 1562 1563 1564 1565 1565 1566 1567 1567 1568 1569 1569 1571 1572 1573 1573 1574 1574 1575 1575 1576
1529 1529 1527 1525 1517 1518 1523 1524 1522 1524 1526 1528 1530 1532 1534 1536 1538 1540 1543 1546 1548 1550 1552 1553 1555 1556 1558 1559 1560 1561 1562 1563 1563 1564 1564 1565 1566 1567 1567 1568 1569 1570 1571 1572 1573 1573 1574 1574 1575
1518 1524 1527 1522 1514 1519 1523 1524 1522 1523 1526 1527 1529 1531 1533 1535 1538 1540 1542 1545 1547 1549 1551 1552 1554 1555 1556 1558 1559 1559 1560 1561 1561 1562 1563 1563 1564 1565 1566 1566 1568 1569 1569 1570 1571 1572 1572 1573 1573
1517 1523 1524 1519 1515 1520 1525 1525 1522 1523 1524 1524 1526 1529 1531 1533 1536 1538 1541 1543 1545 1547 1549 1551 1552 1554 1555 1557 1557 1558 1559 1559 1560 1560 1560 1561 1562 1563 1564 1565 1566 1567 1568 1568 1569 1570 1570 1570 1571
1517 1521 1521 1522 1520 1522 1526 1531 1525 1522 1523 1524 1526 1526 1528 1531 1533 1536 1538 1540 1543 1545 1547 1549 1551 1553 1554 1555 1556 1557 1558 1558 1558 1559 1559 1560 1561 1561 1562 1563 1564 1565 1565 1566 1567 1568 1568 1568 1569
1520 1512 1514 1519 1529 1538 1532 1547 1529 1524 1522 1521 1522 1524 1525 1528 1531 1533 1536 1538 1541 1543 1546 1548 1549 1551 1553 1554 1555 1555 1556 1556 1557 1557 1558 1559 1559 1560 1561 1562 1562 1563 1563 1564 1564 1565 1565 1566 1566
1512 1510 1515 1521 1530 1540 1537 1545 1537 1525 1524 1519 1517 1520 1522 1525 1528 1531 1534 1536 1539 1542 1544 1547 1548 1550 1551 1552 1553 1554 1554 1555 1556 1556 1556 1557 1558 1558 1559 1560 1560 1560 1561 1561 1562 1562 1562 1563 1563
1508 1516 1524 1532 1540 1552 1542 1546 1541 1528 1519 1514 1514 1516 1519 1523 1526 1529 1532 1535 1538 1541 1543 1545 1547 1548 1549 1551 1552 1552 1553 1554 1554 1555 1555 1556 1556 1556 1557 1557 1558 1558 1558 1558 1559 1559 1559 1559 1560
1511 1529 1551 1553 1561 1557 1543 1544 1538 1515 1511 1509 1510 1512 1516 1520 1523 1527 1530 1532 1536 1539 1541 1543 1545 1547 1548 1549 1550 1551 1551 1552 1553 1553 1554 1554 1554 1554 1555 1555 1556 1556 1556 1556 1556 1556 1556 1556 1557
1513 1524 1549 1560 1563 1557 1545 1544 1526 1510 1507 1506 1508 1510 1514 1518 1521 1525 1528 1531 1534 1537 1539 1542 1544 1545 1547 1548 1549 1549 1550 1550 1551 1552 1552 1553 1553 1553 1553 1553 1553 1554 1554 1553 1553 1553 1553 1553 1553
1515 1523 1526 1546 1552 1557 1550 1536 1519 1508 1507 1507 1508 1510 1513 1516 1520 1523 1527 1530 1533 1536 1538 1541 1542 1544 1545 1547 1547 1547 1548 1549 1549 1550 1551 1551 1551 1551 1551 1551 1552 1552 1551 1551 1551 1551 1551 1550 1550
1505 1517 1533 1546 1560 1561 1549 1541 1532 1514 1509 1508 1508 1509 1512 1515 1518 1522 1525 1528 1532 1535 1537 1540 1541 1543 1544 1546 1546 1546 1547 1547 1548 1549 1549 1549 1550 1550 1550 1550 1550 1550 1550 1549 1549 1548 1548 1548 1548
1511 1520 1531 1544 1546 1560 1558 1544 1512 1508 1506 1506 1507 1508 1511 1514 1517 1520 1524 1527 1531 1534 1536 1538 1540 1542 1543 1544 1545 1546 1546 1547 1548 1548 1548 1549 1549 1549 1549 1548 1548 1548 1548 1548 1547 1546 1546 1546 1545
1499 1510 1522 1536 1545 1549 1551 1539 1502 1502 1502 1504 1506 1508 1511 1513 1516 1520 1523 1527 1529 1532 1535 1537 1539 1541 1542 1543 1544 1545 1546 1547 1547 1547 1547 1548 1548 1548 1548 1547 1547 1547 1546 1546 1545 1544 1544 1544 1543